TimeEST,TemperatureF,Dew PointF,Humidity,Sea Level PressureIn,VisibilityMPH,Wind Direction,Wind SpeedMPH,Gust SpeedMPH,PrecipitationIn,Events,Conditions,WindDirDegrees,DateUTC
12:53 AM,9.0,3.9,80,30.17,10.0,Calm,Calm,-,N/A,,Scattered Clouds,0,2013-01-24 05:53:00
1:53 AM,7.0,3.9,87,30.14,10.0,Calm,Calm,-,N/A,,Clear,0,2013-01-24 06:53:00
2:53 AM,7.0,3.9,87,30.14,10.0,Calm,Calm,-,N/A,,Mostly Cloudy,0,2013-01-24 07:53:00
3:53 AM,6.1,3.0,87,30.14,10.0,Calm,Calm,-,N/A,,Mostly Cloudy,0,2013-01-24 08:53:00
4:53 AM,8.1,3.0,80,30.14,10.0,Calm,Calm,-,N/A,,Overcast,0,2013-01-24 09:53:00
5:53 AM,8.1,3.9,83,30.17,10.0,Calm,Calm,-,N/A,,Overcast,0,2013-01-24 10:53:00
6:53 AM,7.0,3.0,84,30.19,10.0,Calm,Calm,-,N/A,,Partly Cloudy,0,2013-01-24 11:53:00
7:53 AM,7.0,3.0,84,30.21,10.0,Calm,Calm,-,N/A,,Clear,0,2013-01-24 12:53:00
8:53 AM,15.1,5.0,64,30.23,10.0,Variable,3.5,-,N/A,,Clear,0,2013-01-24 13:53:00
9:53 AM,19.0,1.9,47,30.25,10.0,North,8.1,-,N/A,,Clear,350,2013-01-24 14:53:00
10:53 AM,21.0,-0.0,40,30.26,10.0,NNW,12.7,19.6,N/A,,Clear,330,2013-01-24 15:53:00
11:53 AM,21.9,-4.0,32,30.26,10.0,NNW,12.7,19.6,N/A,,Clear,330,2013-01-24 16:53:00
12:53 PM,23.0,-2.0,34,30.26,10.0,NW,17.3,24.2,N/A,,Clear,320,2013-01-24 17:53:00
1:53 PM,24.1,-5.1,28,30.27,10.0,NW,18.4,28.8,N/A,,Partly Cloudy,310,2013-01-24 18:53:00
2:53 PM,23.0,-4.0,31,30.30,10.0,NNW,16.1,25.3,N/A,,Clear,340,2013-01-24 19:53:00
3:53 PM,23.0,-2.0,34,30.32,10.0,NW,19.6,33.4,N/A,,Clear,320,2013-01-24 20:53:00
4:53 PM,21.0,-0.9,38,30.35,10.0,NW,15.0,27.6,N/A,,Clear,310,2013-01-24 21:53:00
5:53 PM,19.9,-0.0,42,30.38,10.0,NW,11.5,19.6,N/A,,Clear,310,2013-01-24 22:53:00
6:53 PM,19.9,-0.9,40,30.40,10.0,NW,9.2,-,N/A,,Clear,320,2013-01-24 23:53:00
7:53 PM,19.0,-0.0,43,30.41,10.0,NW,10.4,-,N/A,,Clear,310,2013-01-25 00:53:00
8:53 PM,18.0,1.0,48,30.42,10.0,NW,9.2,-,N/A,,Clear,310,2013-01-25 01:53:00
10:53 PM,17.1,-2.0,43,30.43,10.0,WNW,5.8,-,N/A,,Clear,300,2013-01-25 03:53:00
11:53 PM,16.0,-2.9,43,30.44,10.0,Variable,4.6,-,N/A,,Clear,0,2013-01-25 04:53:00